Погода в Джембере

Индонезия     8°08′56″S   113°42′43″E
темп.,
°C
ветер,
м/с
пор.,
м/с
влажн.,
%
обл.,
%
осадки,
мм/ч
давл.,
гПа
погр.,
м
15 мая, сб
сб1501:00+22вюв12955 0.0 101084
04:00+23всв028896 0.0 1009123
07:00+25юв14772 0.0 1010479
10:00+30ююз235494 0.0 10101402
13:00+32ю1251100 0.0 10071637
16:00+29ююв136464 0.1 1007801
19:00+24вюв148528 0.3 1009279
22:00+22вюв129473 0.0 101196
16 мая, вс
вс1601:00+22в129460 0.0 101077
04:00+21в11964 0.0 101033
07:00+24юв02790 0.0 1011304
10:00+30ююз23527 0.0 10101468
13:00+31юз325548 0.1 10071595
16:00+28юв126859 0.3 1007776
19:00+24в138849 0.6 1010131
22:00+23вюв129316 0.0 1011110
17 мая, пн
пн1701:00+22юв129423 0.1 101084
04:00+21юв01975 0.0 100936
07:00+24вюв138365 0.0 1011356
10:00+30ю235549 0.0 10091395
13:00+32ююз225267 0.2 10071692
16:00+28вюв1267100 0.4 1007706
19:00+23в129083 0.8 101074
22:00+24вюв1288100 0.1 101177
18 мая, вт
вт1801:00+23ююв019198 0.2 101049
04:00+22в0197100 0.1 100923
07:00+24вюв1286100 0.1 1011257
10:00+30юз2258100 0.1 10101393
13:00+29ю127198 1.3 1007787
16:00+27ссв128399 3.8 1007102
19:00+23в229585 4.6 101056
22:00+22в129762 0.0 101157
19 мая, ср
ср1901:00+22вюв11976 0.0 101042
04:00+22в119812 0.0 100926
07:00+24всв019011 0.0 1011230
10:00+30юз236156 0.1 10101330
13:00+29зюз127420 1.7 1007625
16:00+27юв128329 3.1 1008179
19:00+23вюв129363 4.1 101088
22:00+23вюв129516 0.0 101188